When you browse on this site, cookies collect data to enhance your experience and personalize the content and advertising you see.
Visit our Privacy Policy to learn more. By continuing to use the site, you agree to this use of cookies and data.
  • In Romania
  • List of Countries
  • For 7 days
  • Water Temperature
  • Satellite Maps
  • Weather Map
  • Weather Widgets
  • user-avatar
    Login

    Hourly Weather Korytnikovo

    Today, 19 April, Friday

    Time Temperature Precipitation Wind Pressure Humidity
    00:00 +3°C° 0 mm 1 mps 753 mmHg 90%
    01:00 +3°C° 0 mm 1 mps 753 mmHg 91%
    02:00 +2°C° 0 mm 1 mps 754 mmHg 92%
    03:00 +2°C° 0 mm 1 mps 754 mmHg 92%
    04:00 +1°C° 0 mm 1 mps 754 mmHg 91%
    05:00 +1°C° 0 mm 1 mps 754 mmHg 91%
    06:00 +3°C° 0 mm 1 mps 754 mmHg 80%
    07:00 +5°C° 0 mm 1 mps 754 mmHg 70%
    08:00 +7°C° 0 mm 1 mps 754 mmHg 59%
    09:00 +9°C° 0 mm 1 mps 754 mmHg 53%
    10:00 +10°C° 0 mm 1 mps 754 mmHg 48%
    11:00 +12°C° 0 mm 1 mps 754 mmHg 42%
    12:00 +12°C° 0 mm 1 mps 754 mmHg 40%
    13:00 +13°C° 0 mm 1 mps 753 mmHg 38%
    14:00 +13°C° 0 mm 1 mps 753 mmHg 36%
    15:00 +13°C° 0 mm 1 mps 752 mmHg 37%
    16:00 +13°C° 0 mm 1 mps 752 mmHg 38%
    17:00 +12°C° 0 mm 1 mps 751 mmHg 39%
    18:00 +11°C° 0 mm 1 mps 751 mmHg 45%
    19:00 +10°C° 0 mm 1 mps 751 mmHg 50%
    20:00 +8°C° 0 mm 1 mps 750 mmHg 56%
    21:00 +8°C° 0 mm 1 mps 750 mmHg 58%
    22:00 +8°C° 0 mm 1 mps 750 mmHg 61%
    23:00 +6°C° 0 mm 2 mps 750 mmHg 63%

    Tomorrow, 20 April, Saturday

    Time Temperature Precipitation Wind Pressure Humidity
    00:00 +6°C° 0.4 mm 2 mps 749 mmHg 69%
    01:00 +6°C° 0.4 mm 2 mps 749 mmHg 74%
    02:00 +6°C° 0.4 mm 2 mps 749 mmHg 80%
    03:00 +5°C° 0.3 mm 2 mps 749 mmHg 84%
    04:00 +5°C° 0.3 mm 2 mps 748 mmHg 87%
    05:00 +5°C° 0.3 mm 2 mps 748 mmHg 91%
    06:00 +5°C° 0.1 mm 2 mps 748 mmHg 87%
    07:00 +5°C° 0.1 mm 3 mps 748 mmHg 82%
    08:00 +7°C° 0.1 mm 3 mps 748 mmHg 78%
    09:00 +8°C° 0.1 mm 3 mps 748 mmHg 71%
    10:00 +9°C° 0.1 mm 2 mps 748 mmHg 63%
    11:00 +10°C° 0.1 mm 2 mps 748 mmHg 56%
    12:00 +10°C° 0.1 mm 2 mps 748 mmHg 55%
    13:00 +10°C° 0.1 mm 2 mps 748 mmHg 54%
    14:00 +10°C° 0.1 mm 2 mps 748 mmHg 52%
    15:00 +10°C° 0.1 mm 2 mps 748 mmHg 54%
    16:00 +9°C° 0.1 mm 2 mps 748 mmHg 55%
    17:00 +9°C° 0.1 mm 2 mps 748 mmHg 56%
    18:00 +7°C° 0 mm 2 mps 748 mmHg 64%
    19:00 +6°C° 0 mm 2 mps 749 mmHg 71%
    20:00 +4°C° 0 mm 2 mps 749 mmHg 79%
    21:00 +4°C° 0 mm 2 mps 749 mmHg 82%
    22:00 +3°C° 0 mm 2 mps 749 mmHg 85%
    23:00 +3°C° 0 mm 2 mps 750 mmHg 88%

    Day after tomorrow, 21 April, Sunday

    Time Temperature Precipitation Wind Pressure Humidity
    00:00 +3°C° 0 mm 1 mps 750 mmHg 91%
    01:00 +3°C° 0 mm 1 mps 750 mmHg 93%
    02:00 +3°C° 0 mm 1 mps 750 mmHg 95%
    03:00 +3°C° 0 mm 1 mps 750 mmHg 95%
    04:00 +2°C° 0 mm 1 mps 750 mmHg 96%
    05:00 +2°C° 0 mm 1 mps 751 mmHg 96%
    06:00 +4°C° 0 mm 1 mps 751 mmHg 88%
    07:00 +6°C° 0 mm 1 mps 751 mmHg 80%
    08:00 +7°C° 0 mm 2 mps 752 mmHg 73%
    09:00 +8°C° 0 mm 2 mps 752 mmHg 65%
    10:00 +10°C° 0 mm 2 mps 752 mmHg 58%
    11:00 +12°C° 0 mm 2 mps 752 mmHg 51%
    12:00 +13°C° 0 mm 2 mps 751 mmHg 50%
    13:00 +14°C° 0 mm 2 mps 751 mmHg 49%
    14:00 +14°C° 0 mm 1 mps 751 mmHg 47%
    15:00 +14°C° 0 mm 1 mps 751 mmHg 49%
    16:00 +14°C° 0 mm 1 mps 751 mmHg 50%
    17:00 +13°C° 0 mm 1 mps 751 mmHg 52%
    18:00 +11°C° 0 mm 0 mps 751 mmHg 59%
    19:00 +9°C° 0 mm 0 mps 751 mmHg 66%
    20:00 +7°C° 0 mm 0 mps 751 mmHg 74%
    21:00 +7°C° 0 mm 0 mps 751 mmHg 76%
    22:00 +6°C° 0 mm 0 mps 752 mmHg 79%
    23:00 +6°C° 0 mm 0 mps 752 mmHg 82%

    22 April, Monday

    Time Temperature Precipitation Wind Pressure Humidity
    00:00 +5°C° 0 mm 0 mps 752 mmHg 83%
    01:00 +5°C° 0 mm 0 mps 752 mmHg 85%
    02:00 +5°C° 0 mm 0 mps 752 mmHg 87%
    03:00 +4°C° 0 mm 0 mps 752 mmHg 87%
    04:00 +5°C° 0 mm 1 mps 752 mmHg 88%
    05:00 +5°C° 0 mm 1 mps 752 mmHg 88%
    06:00 +7°C° 0 mm 1 mps 753 mmHg 79%
    07:00 +10°C° 0 mm 1 mps 753 mmHg 71%
    08:00 +12°C° 0 mm 1 mps 753 mmHg 62%
    09:00 +13°C° 0 mm 1 mps 753 mmHg 54%
    10:00 +15°C° 0 mm 1 mps 753 mmHg 47%
    11:00 +16°C° 0 mm 1 mps 753 mmHg 39%
    12:00 +16°C° 0 mm 1 mps 753 mmHg 38%
    13:00 +17°C° 0 mm 2 mps 752 mmHg 36%
    14:00 +17°C° 0 mm 2 mps 752 mmHg 35%
    15:00 +17°C° 0 mm 2 mps 752 mmHg 37%
    16:00 +17°C° 0 mm 2 mps 752 mmHg 40%
    17:00 +16°C° 0 mm 1 mps 751 mmHg 42%
    18:00 +14°C° 0 mm 1 mps 752 mmHg 49%
    19:00 +12°C° 0 mm 1 mps 752 mmHg 55%
    20:00 +10°C° 0 mm 1 mps 752 mmHg 61%
    21:00 +10°C° 0 mm 1 mps 752 mmHg 63%
    22:00 +9°C° 0 mm 1 mps 752 mmHg 65%
    23:00 +9°C° 0 mm 1 mps 752 mmHg 67%

    23 April, Tuesday

    Time Temperature Precipitation Wind Pressure Humidity
    00:00 +8°C° 0 mm 1 mps 753 mmHg 67%
    01:00 +8°C° 0 mm 1 mps 753 mmHg 67%
    02:00 +8°C° 0 mm 1 mps 753 mmHg 68%
    03:00 +7°C° 0 mm 1 mps 753 mmHg 70%
    04:00 +6°C° 0 mm 2 mps 753 mmHg 72%
    05:00 +6°C° 0 mm 2 mps 753 mmHg 74%
    06:00 +8°C° 0 mm 2 mps 753 mmHg 69%
    07:00 +10°C° 0 mm 2 mps 754 mmHg 64%
    08:00 +13°C° 0 mm 2 mps 754 mmHg 59%
    09:00 +15°C° 0 mm 2 mps 754 mmHg 52%
    10:00 +16°C° 0 mm 3 mps 754 mmHg 46%
    11:00 +18°C° 0 mm 3 mps 754 mmHg 40%
    12:00 +18°C° 0 mm 3 mps 754 mmHg 39%
    13:00 +18°C° 0 mm 3 mps 753 mmHg 37%
    14:00 +19°C° 0 mm 3 mps 753 mmHg 36%
    15:00 +18°C° 0 mm 3 mps 753 mmHg 38%
    16:00 +18°C° 0 mm 2 mps 753 mmHg 40%
    17:00 +18°C° 0 mm 2 mps 753 mmHg 42%
    18:00 +16°C° 0 mm 2 mps 753 mmHg 47%
    19:00 +14°C° 0 mm 1 mps 753 mmHg 53%
    20:00 +12°C° 0 mm 1 mps 753 mmHg 59%
    21:00 +11°C° 0 mm 1 mps 753 mmHg 61%
    22:00 +10°C° 0 mm 1 mps 753 mmHg 63%
    23:00 +10°C° 0 mm 1 mps 753 mmHg 64%

    24 April, Wednesday

    Time Temperature Precipitation Wind Pressure Humidity
    00:00 +9°C° 0 mm 1 mps 754 mmHg 66%
    01:00 +9°C° 0 mm 1 mps 754 mmHg 67%
    02:00 +9°C° 0 mm 1 mps 754 mmHg 68%
    03:00 +8°C° 0 mm 1 mps 754 mmHg 68%
    04:00 +8°C° 0 mm 1 mps 755 mmHg 69%
    05:00 +8°C° 0 mm 1 mps 755 mmHg 70%
    06:00 +10°C° 0 mm 1 mps 755 mmHg 63%
    07:00 +13°C° 0 mm 1 mps 755 mmHg 56%
    08:00 +15°C° 0 mm 1 mps 755 mmHg 49%
    09:00 +16°C° 0 mm 1 mps 755 mmHg 44%
    10:00 +19°C° 0 mm 1 mps 755 mmHg 39%
    11:00 +20°C° 0 mm 1 mps 755 mmHg 35%
    12:00 +21°C° 0 mm 1 mps 755 mmHg 33%
    13:00 +21°C° 0 mm 1 mps 754 mmHg 32%
    14:00 +22°C° 0 mm 1 mps 754 mmHg 31%
    15:00 +21°C° 0 mm 1 mps 754 mmHg 33%
    16:00 +19°C° 0 mm 0 mps 754 mmHg 34%
    17:00 +18°C° 0 mm 0 mps 754 mmHg 36%
    18:00 +16°C° 0 mm 0 mps 753 mmHg 41%
    19:00 +14°C° 0 mm 0 mps 753 mmHg 46%
    20:00 +12°C° 0 mm 0 mps 753 mmHg 51%
    21:00 +13°C° 0 mm 1 mps 753 mmHg 54%
    22:00 +12°C° 0 mm 1 mps 754 mmHg 56%
    23:00 +12°C° 0 mm 1 mps 754 mmHg 58%
    Show more